Location: Unspecified
(0.0000°N, 0.0000°E)
Time: 21:20:34
(UTC+00:00)

N. Korean satellite - Pass Details

Date: 20 January 2018
Orbit: 459 x 515 km, 97.2° (Epoch: 19 January)

Event Time Altitude Azimuth Distance (km) Brightness Sun altitude
Rises 19:02:26 0° 197° (SSW) 2,616 10.8 -12.0°
Reaches altitude 10° 19:05:07 10° 217° (SW) 1,720 10.3 -12.7°
Maximum altitude 19:07:32 17° 258° (WSW) 1,341 10.0 -13.2°
Drops below altitude 10° 19:09:56 10° 300° (WNW) 1,696 9.9 -13.8°
Sets 19:12:34 0° 321° (NW) 2,564 10.5 -14.4°
